Weather Roundup
Issued by NWS Chicago, IL

Home | Current Version | Previous Version | Graphics & Text | Print | Product List | Glossary On
Versions: 1 2 3 4 5 6 7 8 9 10 11 12 13 14 15 16 17 18 19 20 21 22 23 24 25 26 27 28 29 30 31 32 33 34 35 36 37 38 39 40 41 42 43 44 45 46 47 48 49 50
000
NZUS59 KLOT 161710
HRRLOT

CHICAGO AREA WEATHER ROUNDUP
NATIONAL WEATHER SERVICE CHICAGO/ROMEOVILLE IL
1200 PM CDT TUE SEP 16 2014

NOTE: "FAIR" INDICATES FEW OR NO CLOUDS BELOW 12,000 FEET WITH NO
SIGNIFICANT WEATHER AND/OR OBSTRUCTIONS TO VISIBILITY.

* THESE STATIONS ARE NOT UNDER NWS QUALITY CONTROL. THEY ALSO MAY NOT
  REPORT WEATHER SUCH AS PRECIPITATION OR FOG.

ILZ005-006-012>014-019>023-161800-
NORTHEAST ILLINOIS

CITY           SKY/WX    TMP DP  RH WIND       PRES   REMARKS
OHARE          MOSUNNY   60  40  47 CALM      30.19F
MIDWAY         MOSUNNY   62  43  49 NW3       30.19F
AURORA         SUNNY     62  40  44 S3        30.20F
LANSING*       PTSUNNY   62  44  51 CALM      30.19F
JOLIET*        MOSUNNY   62  43  49 E3        30.21S
WAUKEGAN       SUNNY     61  40  45 VRB3      30.18F
DUPAGE AIRPORT SUNNY     64  42  44 W8        30.19F
WHEELING       SUNNY     63  39  41 VRB3      30.20F
KANKAKEE*      MOSUNNY   62  49  62 CALM      30.20F
MORRIS*        PTSUNNY   63  46  53 N3        30.20F
LEWIS AIRPORT* MOSUNNY   61  43  51 CALM      30.19F
NORTHERLY IS     N/A     60  50  69 NE7         N/A
$$

WIZ051-052-058>065-066-070>072-161800-
SOUTHEAST WISCONSIN

CITY           SKY/WX    TMP DP  RH WIND       PRES   REMARKS
MILWAUKEE      MOSUNNY   60  36  40 W6        30.19F
KENOSHA*       SUNNY     60  42  51 W8        30.19F
RACINE*        SUNNY     61  39  44 W9        30.20F
BURLINGTON     SUNNY     58  38  46 NW5       30.19F
WAUKESHA       MOSUNNY   55  39  54 SW5       30.20F
WEST BEND      SUNNY     59  36  41 SW5       30.17F
$$

INZ001>003-010>013-019-020-161800-
NORTHWEST INDIANA

CITY           SKY/WX    TMP DP  RH WIND       PRES   REMARKS
GARY*          MOSUNNY   64  43  45 VRB5      30.20F
MICHIGAN CITY* NOT AVBL
RENSSELAER*    NOT AVBL
VALPARAISO     CLOUDY    60  49  66 NW3       30.19F
$$

LMZ740>746-161800-
SOUTHERN LAKE MICHIGAN

STATION/POSITION TIME  SKY/WX   TEMP WIND        PRES    VSBY
                                AIR  DIR/SP/G
                 (UTC)          (F)  (DEG/KT/KT) (MB)    (MI)
HARRISON CRIB    1700            56  360/  5/  6   N/A
BURNHAM HARBOR   1700            60   50/  6/  7   N/A
CALUMET HARBOR   1600            59   60/  5/  5 1021.6F
BURNS HARBOR     NOT AVBL
MICHIGAN CITY    1700            59  250/  7/  9   N/A
$$

ABBREVIATIONS USED IN REMARKS
   TC - TEMPERATURE IN CELSIUS
  WCI - WIND CHILL INDEX
   HX - HEAT INDEX
  VSB - VISIBILITY
$$


USA.gov is the U.S. government's official web portal to all federal, state and local government web resources and services.